This is the latest recevied weather packets stored in our database for station/object IW3HBX-13. If no packets are shown the sender has not sent any weather packets the latest 10 day(s).
| Time | Temp. | Humidity | Pressure | Rain* | Wind** | Luminosity | Snow |
|---|---|---|---|---|---|---|---|
| 1777723927 | 24.44° C | 34% | 1023.6 hPa | 0 mm | - | 802 W/m² | - |
| 1777723569 | 24.44° C | 35% | 1023.7 hPa | 0 mm | - | 797 W/m² | - |
| 1777722847 | 23.33° C | 35% | 1023.9 hPa | 0 mm | - | 806 W/m² | - |
| 1777722490 | 23.33° C | 35% | 1023.9 hPa | 0 mm | - | 812 W/m² | - |
| 1777722127 | 23.89° C | 35% | 1023.9 hPa | 0 mm | - | 812 W/m² | - |
| 1777721767 | 24.44° C | 34% | 1024.2 hPa | 0 mm | - | 816 W/m² | - |
| 1777721047 | 22.22° C | 35% | 1024.2 hPa | 0 mm | - | 820 W/m² | - |
| 1777720690 | 22.78° C | 35% | 1024.4 hPa | 0 mm | - | 821 W/m² | - |
| 1777720327 | 22.78° C | 35% | 1024.4 hPa | 0 mm | - | 826 W/m² | - |
| 1777719967 | 23.33° C | 34% | 1024.6 hPa | 0 mm | - | 827 W/m² | - |
| 1777719250 | 23.33° C | 34% | 1024.7 hPa | 0 mm | - | 824 W/m² | - |
| 1777718888 | 22.78° C | 36% | 1024.8 hPa | 0 mm | - | 822 W/m² | - |
| 1777718527 | 23.33° C | 35% | 1024.8 hPa | 0 mm | - | 816 W/m² | - |
| 1777718167 | 22.78° C | 35% | 1024.9 hPa | 0 mm | - | 818 W/m² | - |
| 1777717447 | 22.22° C | 36% | 1025.2 hPa | 0 mm | - | 805 W/m² | - |
| 1777717087 | 22.78° C | 36% | 1025.2 hPa | 0 mm | - | 794 W/m² | - |
| 1777716727 | 22.78° C | 36% | 1025.2 hPa | 0 mm | - | 789 W/m² | - |
| 1777716367 | 21.67° C | 36% | 1025.3 hPa | 0 mm | - | 777 W/m² | - |
| 1777715649 | 22.22° C | 37% | 1025.5 hPa | 0 mm | - | 760 W/m² | - |
| 1777715287 | 22.22° C | 37% | 1025.5 hPa | 0 mm | - | 743 W/m² | - |
| 1777714928 | 21.67° C | 37% | 1025.5 hPa | 0 mm | - | 737 W/m² | - |
| 1777714567 | 22.78° C | 38% | 1025.6 hPa | 0 mm | - | 728 W/m² | - |
| 1777713850 | 21.67° C | 38% | 1025.7 hPa | 0 mm | - | 716 W/m² | - |
| 1777713487 | 21.67° C | 40% | 1025.8 hPa | 0 mm | - | 705 W/m² | - |
| 1777713130 | 21.11° C | 39% | 1025.8 hPa | 0 mm | - | 693 W/m² | - |
* Rain latest hour (hover to see other rain measurements)
** Current wind speed in m/s (hover to see current wind gust speed)